| time (UTC) | temp F | wind direction | speed MPH | gust MPH | rain 1hr in | rain 24hr in | rain mn in | humidity % | barometer mb |
| 20260902224057 | 87 | 62 | 0.0 | 0.0 | 0.00 | 0.19 | 0.19 | 56 | 1010.8 |
| 20260902223553 | 87 | 62 | 0.0 | 0.0 | 0.00 | 0.19 | 0.19 | 57 | 1010.8 |
| 20260902223052 | 87 | 62 | 0.0 | 0.0 | 0.00 | 0.19 | 0.19 | 56 | 1011.1 |
| 20260902222550 | 87 | 63 | 0.0 | 1.0 | 0.00 | 0.19 | 0.19 | 54 | 1010.8 |
| 20260902222049 | 87 | 16 | 0.0 | 0.0 | 0.00 | 0.19 | 0.19 | 56 | 1010.8 |
| 20260902221544 | 87 | 10 | 0.0 | 0.0 | 0.00 | 0.19 | 0.19 | 55 | 1010.8 |
| 20260902221039 | 88 | 278 | 0.0 | 1.0 | 0.00 | 0.19 | 0.19 | 55 | 1011.1 |
| 20260902220534 | 88 | 304 | 1.0 | 2.0 | 0.00 | 0.19 | 0.19 | 54 | 1011.1 |
| 20260902220029 | 89 | 285 | 2.0 | 2.0 | 0.00 | 0.19 | 0.19 | 54 | 1011.1 |
| 20260902215525 | 89 | 343 | 1.0 | 1.0 | 0.00 | 0.19 | 0.19 | 55 | 1011.1 |
| 20260902215020 | 89 | 267 | 0.0 | 0.0 | 0.00 | 0.19 | 0.19 | 53 | 1011.1 |
| 20260902214520 | 90 | 259 | 2.0 | 2.0 | 0.00 | 0.19 | 0.19 | 50 | 1011.1 |
| 20260902214019 | 89 | 305 | 0.0 | 0.0 | 0.00 | 0.19 | 0.19 | 50 | 1010.8 |
| 20260902213515 | 89 | 287 | 1.0 | 1.0 | 0.00 | 0.19 | 0.19 | 52 | 1010.8 |
| 20260902213014 | 89 | 324 | 0.0 | 0.0 | 0.00 | 0.19 | 0.19 | 55 | 1010.8 |
| 20260902212510 | 90 | 310 | 1.0 | 1.0 | 0.00 | 0.19 | 0.19 | 53 | 1010.8 |
| 20260902212006 | 90 | 97 | 1.0 | 1.0 | 0.00 | 0.19 | 0.19 | 50 | 1011.1 |
| 20260902211502 | 90 | 273 | 2.0 | 2.0 | 0.00 | 0.19 | 0.19 | 54 | 1011.1 |
| 20260902210956 | 91 | 270 | 2.0 | 3.0 | 0.00 | 0.19 | 0.19 | 52 | 1011.1 |
| 20260902210451 | 90 | 251 | 0.0 | 0.0 | 0.00 | 0.19 | 0.19 | 54 | 1011.1 |
| 20260902205950 | 90 | 294 | 1.0 | 1.0 | 0.00 | 0.19 | 0.19 | 53 | 1011.1 |
| 20260902205450 | 90 | 67 | 1.0 | 1.0 | 0.00 | 0.19 | 0.19 | 53 | 1011.1 |
| 20260902204945 | 90 | 60 | 0.0 | 1.0 | 0.00 | 0.19 | 0.19 | 52 | 1011.1 |
| 20260902204445 | 90 | 222 | 0.0 | 1.0 | 0.00 | 0.19 | 0.19 | 52 | 1011.1 |
| 20260902203940 | 89 | 164 | 0.0 | 0.0 | 0.00 | 0.19 | 0.19 | 54 | 1011.5 |
| 20260902203436 | 89 | 269 | 1.0 | 2.0 | 0.00 | 0.19 | 0.19 | 53 | 1011.1 |
| 20260902202935 | 89 | 289 | 1.0 | 1.0 | 0.00 | 0.19 | 0.19 | 55 | 1011.1 |
| 20260902202431 | 89 | 304 | 1.0 | 1.0 | 0.00 | 0.19 | 0.19 | 55 | 1011.5 |
| 20260902201928 | 89 | 297 | 1.0 | 1.0 | 0.00 | 0.19 | 0.19 | 52 | 1011.5 |
| 20260902201423 | 89 | 327 | 1.0 | 1.0 | 0.00 | 0.19 | 0.19 | 53 | 1011.5 |
| 20260902200923 | 89 | 266 | 2.0 | 2.0 | 0.00 | 0.19 | 0.19 | 53 | 1011.5 |
| 20260902200418 | 88 | 263 | 1.0 | 1.0 | 0.00 | 0.19 | 0.19 | 52 | 1011.1 |
| 20260902195913 | 88 | 283 | 2.0 | 2.0 | 0.00 | 0.19 | 0.19 | 55 | 1011.8 |
| 20260902195408 | 88 | 273 | 1.0 | 2.0 | 0.00 | 0.19 | 0.19 | 55 | 1011.5 |
| 20260902194902 | 87 | 264 | 0.0 | 1.0 | 0.00 | 0.19 | 0.19 | 55 | 1011.8 |
| 20260902194402 | 87 | 278 | 1.0 | 2.0 | 0.00 | 0.19 | 0.19 | 55 | 1011.5 |
| 20260902193857 | 87 | 300 | 2.0 | 2.0 | 0.00 | 0.19 | 0.19 | 55 | 1011.8 |
| 20260902193354 | 87 | 326 | 1.0 | 1.0 | 0.00 | 0.19 | 0.19 | 55 | 1012.2 |
| 20260902192852 | 87 | 315 | 1.0 | 2.0 | 0.00 | 0.19 | 0.19 | 56 | 1012.2 |
| 20260902192351 | 87 | 294 | 2.0 | 3.0 | 0.00 | 0.19 | 0.19 | 55 | 1012.2 |
| 20260902191845 | 86 | 289 | 1.0 | 1.0 | 0.00 | 0.19 | 0.19 | 56 | 1011.8 |
| 20260902191341 | 86 | 248 | 1.0 | 1.0 | 0.00 | 0.19 | 0.19 | 56 | 1012.2 |
| 20260902190836 | 86 | 3 | 2.0 | 2.0 | 0.00 | 0.19 | 0.19 | 54 | 1012.2 |
| 20260902190335 | 86 | 323 | 0.0 | 0.0 | 0.00 | 0.19 | 0.19 | 57 | 1012.2 |
| 20260902185832 | 85 | 340 | 2.0 | 2.0 | 0.00 | 0.19 | 0.19 | 56 | 1012.2 |
| 20260902185326 | 85 | 281 | 1.0 | 1.0 | 0.00 | 0.19 | 0.19 | 59 | 1012.2 |
| 20260902184822 | 85 | 10 | 0.0 | 0.0 | 0.00 | 0.19 | 0.19 | 59 | 1012.5 |
| 20260902184318 | 84 | 263 | 1.0 | 2.0 | 0.00 | 0.19 | 0.19 | 60 | 1012.5 |
| 20260902183813 | 84 | 258 | 0.0 | 0.0 | 0.00 | 0.19 | 0.19 | 59 | 1012.5 |
| 20260902183309 | 84 | 179 | 0.0 | 1.0 | 0.00 | 0.19 | 0.19 | 63 | 1012.5 |
| 20260902182805 | 83 | 209 | 1.0 | 2.0 | 0.00 | 0.19 | 0.19 | 62 | 1012.5 |
| 20260902182301 | 83 | 214 | 1.0 | 2.0 | 0.00 | 0.19 | 0.19 | 63 | 1012.5 |
| 20260902181757 | 83 | 261 | 1.0 | 1.0 | 0.00 | 0.19 | 0.19 | 64 | 1012.8 |
| 20260902181252 | 83 | 139 | 1.0 | 1.0 | 0.00 | 0.19 | 0.19 | 64 | 1012.5 |
| 20260902180746 | 83 | 246 | 0.0 | 1.0 | 0.00 | 0.19 | 0.19 | 65 | 1012.5 |
| 20260902180242 | 83 | 260 | 2.0 | 2.0 | 0.00 | 0.19 | 0.19 | 63 | 1012.5 |
| 20260902175737 | 83 | 283 | 2.0 | 2.0 | 0.00 | 0.19 | 0.19 | 66 | 1012.5 |
| 20260902175233 | 83 | 254 | 1.0 | 1.0 | 0.00 | 0.19 | 0.19 | 66 | 1012.8 |
| 20260902174728 | 83 | 274 | 2.0 | 2.0 | 0.00 | 0.19 | 0.19 | 66 | 1012.5 |
| 20260902174224 | 83 | 265 | 1.0 | 2.0 | 0.00 | 0.19 | 0.19 | 67 | 1012.8 |
| 20260902173720 | 83 | 94 | 1.0 | 1.0 | 0.00 | 0.19 | 0.19 | 66 | 1012.5 |
| 20260902173219 | 82 | 281 | 0.0 | 1.0 | 0.00 | 0.19 | 0.19 | 64 | 1012.5 |
| 20260902172714 | 82 | 117 | 1.0 | 1.0 | 0.00 | 0.19 | 0.19 | 63 | 1012.8 |
| 20260902172214 | 82 | 262 | 1.0 | 2.0 | 0.00 | 0.19 | 0.19 | 68 | 1012.5 |
| 20260902171709 | 81 | 187 | 0.0 | 1.0 | 0.00 | 0.19 | 0.19 | 68 | 1012.8 |
| 20260902171204 | 81 | 265 | 2.0 | 2.0 | 0.00 | 0.19 | 0.19 | 69 | 1012.5 |
| 20260902170701 | 81 | 129 | 0.0 | 0.0 | 0.00 | 0.19 | 0.19 | 69 | 1012.5 |
| 20260902170155 | 80 | 92 | 0.0 | 0.0 | 0.00 | 0.19 | 0.19 | 69 | 1012.8 |
| 20260902165650 | 80 | 84 | 1.0 | 1.0 | 0.00 | 0.19 | 0.19 | 69 | 1013.2 |
| 20260902165144 | 78 | 83 | 1.0 | 1.0 | 0.00 | 0.19 | 0.19 | 69 | 1013.2 |
| 20260902164640 | 77 | 259 | 0.0 | 1.0 | 0.00 | 0.19 | 0.19 | 73 | 1013.2 |
| 20260902164138 | 76 | 254 | 1.0 | 1.0 | 0.00 | 0.19 | 0.19 | 76 | 1013.2 |
| 20260902163634 | 75 | 78 | 1.0 | 1.0 | 0.00 | 0.19 | 0.19 | 80 | 1012.8 |
| 20260902163133 | 74 | 50 | 0.0 | 0.0 | 0.00 | 0.19 | 0.19 | 81 | 1012.8 |
| 20260902162632 | 73 | 50 | 0.0 | 0.0 | 0.00 | 0.19 | 0.19 | 85 | 1012.8 |
| 20260902162126 | 73 | 48 | 0.0 | 1.0 | 0.00 | 0.19 | 0.19 | 87 | 1012.8 |
| 20260902161622 | 73 | 49 | 1.0 | 1.0 | 0.00 | 0.19 | 0.19 | 88 | 1013.2 |
| 20260902161118 | 73 | 2 | 0.0 | 0.0 | 0.00 | 0.19 | 0.19 | 88 | 1013.2 |
| 20260902160608 | 72 | 10 | 0.0 | 1.0 | 0.00 | 0.19 | 0.19 | 88 | 1012.8 |
| 20260902160103 | 72 | 97 | 0.0 | 0.0 | 0.00 | 0.19 | 0.19 | 89 | 1013.2 |
| 20260902155601 | 72 | 120 | 0.0 | 0.0 | 0.00 | 0.19 | 0.19 | 89 | 1013.2 |
| 20260902155100 | 72 | 281 | 0.0 | 0.0 | 0.00 | 0.19 | 0.19 | 89 | 1013.2 |
| 20260902154555 | 71 | 74 | 0.0 | 0.0 | 0.00 | 0.19 | 0.19 | 89 | 1013.2 |
| 20260902154050 | 71 | 75 | 0.0 | 0.0 | 0.00 | 0.19 | 0.19 | 89 | 1013.2 |
| 20260902153549 | 71 | 74 | 0.0 | 1.0 | 0.00 | 0.19 | 0.19 | 89 | 1013.6 |
| 20260902153045 | 71 | 74 | 0.0 | 0.0 | 0.00 | 0.19 | 0.19 | 89 | 1013.2 |
| 20260902152541 | 71 | 74 | 0.0 | 0.0 | 0.00 | 0.19 | 0.19 | 89 | 1013.2 |
| 20260902152036 | 70 | 74 | 0.0 | 0.0 | 0.00 | 0.19 | 0.19 | 89 | 1013.2 |
| 20260902151532 | 70 | 74 | 0.0 | 1.0 | 0.00 | 0.19 | 0.19 | 89 | 1013.2 |
| 20260902151031 | 70 | 74 | 0.0 | 0.0 | 0.00 | 0.19 | 0.19 | 89 | 1012.8 |
| 20260902150526 | 70 | 75 | 0.0 | 0.0 | 0.00 | 0.19 | 0.19 | 89 | 1013.2 |
| 20260902150022 | 70 | 74 | 0.0 | 0.0 | 0.00 | 0.19 | 0.19 | 89 | 1013.2 |
| 20260902145516 | 70 | 75 | 0.0 | 0.0 | 0.00 | 0.19 | 0.19 | 89 | 1013.2 |
| 20260902145011 | 70 | 75 | 0.0 | 0.0 | 0.00 | 0.19 | 0.19 | 89 | 1013.2 |
| 20260902144508 | 69 | 75 | 0.0 | 0.0 | 0.00 | 0.19 | 0.19 | 89 | 1013.2 |
| 20260902144002 | 69 | 75 | 0.0 | 0.0 | 0.00 | 0.19 | 0.19 | 89 | 1013.2 |
| 20260902143457 | 69 | 75 | 0.0 | 0.0 | 0.00 | 0.19 | 0.19 | 89 | 1013.2 |
| 20260902142953 | 69 | 75 | 0.0 | 0.0 | 0.00 | 0.19 | 0.19 | 89 | 1013.2 |
| 20260902142448 | 69 | 75 | 0.0 | 0.0 | 0.00 | 0.19 | 0.19 | 89 | 1013.2 |
| 20260902141943 | 68 | 75 | 0.0 | 0.0 | 0.00 | 0.19 | 0.19 | 89 | 1013.2 |
| 20260902141438 | 68 | 75 | 1.0 | 1.0 | 0.00 | 0.19 | 0.19 | 89 | 1013.2 |
| 20260902140938 | 68 | 75 | 0.0 | 0.0 | 0.00 | 0.19 | 0.19 | 89 | 1013.2 |
| 20260902140433 | 68 | 75 | 0.0 | 0.0 | 0.00 | 0.19 | 0.19 | 89 | 1013.2 |
| 20260902135933 | 68 | 74 | 0.0 | 0.0 | 0.00 | 0.19 | 0.19 | 89 | 1012.8 |
| 20260902135429 | 68 | 75 | 0.0 | 0.0 | 0.00 | 0.19 | 0.19 | 89 | 1013.2 |
| 20260902134927 | 68 | 75 | 0.0 | 0.0 | 0.00 | 0.19 | 0.19 | 89 | 1013.2 |
| 20260902134424 | 68 | 75 | 0.0 | 0.0 | 0.00 | 0.19 | 0.19 | 89 | 1013.6 |
| 20260902133918 | 68 | 75 | 0.0 | 0.0 | 0.00 | 0.19 | 0.19 | 89 | 1013.9 |
| 20260902133413 | 68 | 75 | 0.0 | 0.0 | 0.00 | 0.19 | 0.19 | 89 | 1013.9 |
| 20260902132908 | 67 | 75 | 0.0 | 1.0 | 0.00 | 0.19 | 0.19 | 89 | 1013.6 |
| 20260902132403 | 67 | 75 | 0.0 | 0.0 | 0.00 | 0.19 | 0.19 | 89 | 1013.9 |
| 20260902131858 | 67 | 75 | 0.0 | 0.0 | 0.00 | 0.19 | 0.19 | 89 | 1014.3 |
| 20260902131355 | 67 | 75 | 0.0 | 0.0 | 0.00 | 0.19 | 0.19 | 89 | 1013.9 |
| 20260902130854 | 66 | 75 | 0.0 | 0.0 | 0.00 | 0.19 | 0.19 | 89 | 1013.9 |
| 20260902130350 | 66 | 75 | 0.0 | 0.0 | 0.00 | 0.19 | 0.19 | 89 | 1014.3 |
| 20260902125845 | 66 | 75 | 1.0 | 1.0 | 0.00 | 0.19 | 0.19 | 89 | 1014.3 |
| 20260902125341 | 66 | 90 | 0.0 | 0.0 | 0.00 | 0.19 | 0.19 | 89 | 1014.3 |
| 20260902124837 | 66 | 90 | 0.0 | 0.0 | 0.00 | 0.19 | 0.19 | 89 | 1013.9 |
| 20260902124333 | 66 | 90 | 0.0 | 0.0 | 0.00 | 0.19 | 0.19 | 89 | 1014.3 |
| 20260902123827 | 66 | 91 | 0.0 | 0.0 | 0.00 | 0.19 | 0.19 | 89 | 1014.3 |
| 20260902123324 | 66 | 91 | 0.0 | 0.0 | 0.00 | 0.19 | 0.19 | 89 | 1013.9 |
| 20260902122822 | 66 | 91 | 0.0 | 0.0 | 0.00 | 0.19 | 0.19 | 89 | 1013.6 |
| 20260902122318 | 66 | 91 | 0.0 | 0.0 | 0.00 | 0.19 | 0.19 | 89 | 1013.6 |
| 20260902121818 | 66 | 91 | 0.0 | 0.0 | 0.00 | 0.19 | 0.19 | 89 | 1013.6 |
| 20260902121313 | 66 | 98 | 0.0 | 0.0 | 0.00 | 0.19 | 0.19 | 89 | 1013.2 |
| 20260902120808 | 66 | 99 | 0.0 | 0.0 | 0.00 | 0.19 | 0.19 | 89 | 1013.6 |
| 20260902120305 | 66 | 209 | 0.0 | 1.0 | 0.00 | 0.19 | 0.19 | 89 | 1014.3 |
| 20260902115759 | 66 | 238 | 0.0 | 1.0 | 0.00 | 0.19 | 0.19 | 89 | 1013.9 |
| 20260902115256 | 66 | 233 | 1.0 | 1.0 | 0.00 | 0.19 | 0.19 | 89 | 1012.8 |
| 20260902114752 | 66 | 110 | 0.0 | 0.0 | 0.00 | 0.19 | 0.19 | 89 | 1012.8 |
| 20260902114248 | 67 | 110 | 0.0 | 0.0 | 0.00 | 0.19 | 0.19 | 89 | 1013.2 |
| 20260902113748 | 67 | 345 | 1.0 | 2.0 | 0.00 | 0.19 | 0.19 | 89 | 1012.5 |
| 20260902113243 | 67 | 37 | 0.0 | 0.0 | 0.00 | 0.19 | 0.19 | 89 | 1012.5 |
| 20260902112742 | 67 | 38 | 0.0 | 0.0 | 0.07 | 0.19 | 0.19 | 89 | 1012.8 |
| 20260902112240 | 67 | 38 | 0.0 | 1.0 | 0.07 | 0.19 | 0.19 | 89 | 1013.2 |
| 20260902111735 | 67 | 38 | 0.0 | 0.0 | 0.05 | 0.18 | 0.18 | 89 | 1013.6 |
| 20260902111231 | 67 | 38 | 0.0 | 0.0 | 0.12 | 0.18 | 0.18 | 89 | 1013.9 |
| 20260902110726 | 67 | 34 | 1.0 | 1.0 | 0.07 | 0.17 | 0.17 | 89 | 1014.3 |
| 20260902110222 | 67 | 33 | 0.0 | 0.0 | 0.05 | 0.16 | 0.16 | 89 | 1014.6 |
| 20260902105721 | 67 | 33 | 0.0 | 0.0 | 0.07 | 0.15 | 0.15 | 89 | 1015.0 |
| 20260902105217 | 67 | 15 | 1.0 | 1.0 | 0.07 | 0.15 | 0.15 | 89 | 1015.3 |
| 20260902104712 | 67 | 42 | 0.0 | 0.0 | 0.00 | 0.14 | 0.14 | 89 | 1015.3 |
| 20260902104209 | 67 | 43 | 0.0 | 0.0 | 0.00 | 0.14 | 0.14 | 88 | 1014.6 |
| 20260902103707 | 67 | 43 | 0.0 | 0.0 | 0.00 | 0.14 | 0.14 | 89 | 1014.3 |
| 20260902103202 | 67 | 43 | 0.0 | 0.0 | 0.00 | 0.14 | 0.14 | 88 | 1014.3 |
| 20260902102658 | 67 | 42 | 0.0 | 0.0 | 0.28 | 0.14 | 0.14 | 88 | 1014.6 |
| 20260902102156 | 67 | 37 | 0.0 | 0.0 | 0.24 | 0.13 | 0.13 | 88 | 1014.3 |
| 20260902101650 | 67 | 331 | 1.0 | 2.0 | 0.00 | 0.09 | 0.09 | 89 | 1015.0 |
| 20260902101150 | 67 | 315 | 1.0 | 1.0 | 0.00 | 0.09 | 0.09 | 88 | 1013.9 |
| 20260902100644 | 67 | 148 | 0.0 | 0.0 | 0.00 | 0.09 | 0.09 | 88 | 1013.2 |
| 20260902100139 | 67 | 46 | 1.0 | 1.0 | 0.00 | 0.09 | 0.09 | 88 | 1012.8 |
| 20260902095638 | 67 | 49 | 0.0 | 0.0 | 0.00 | 0.09 | 0.09 | 88 | 1012.5 |
| 20260902095138 | 67 | 43 | 0.0 | 0.0 | 0.00 | 0.09 | 0.09 | 88 | 1012.5 |
| 20260902094633 | 67 | 40 | 0.0 | 1.0 | 0.00 | 0.09 | 0.09 | 88 | 1013.2 |
| 20260902094130 | 68 | 35 | 0.0 | 0.0 | 0.00 | 0.09 | 0.09 | 88 | 1013.2 |
| 20260902093624 | 68 | 49 | 0.0 | 0.0 | 0.00 | 0.09 | 0.09 | 88 | 1013.2 |
| 20260902093118 | 68 | 49 | 0.0 | 0.0 | 0.07 | 0.09 | 0.09 | 88 | 1013.2 |
| 20260902092612 | 68 | 47 | 0.0 | 0.0 | 0.00 | 0.08 | 0.08 | 88 | 1013.2 |
| 20260902092108 | 68 | 42 | 1.0 | 1.0 | 0.00 | 0.08 | 0.08 | 88 | 1013.2 |
| 20260902091603 | 68 | 40 | 0.0 | 0.0 | 0.00 | 0.08 | 0.08 | 88 | 1013.6 |
| 20260902091059 | 68 | 337 | 1.0 | 1.0 | 0.00 | 0.08 | 0.08 | 88 | 1013.9 |
| 20260902090555 | 68 | 55 | 1.0 | 1.0 | 0.00 | 0.08 | 0.08 | 88 | 1013.2 |
| 20260902090053 | 68 | 56 | 0.0 | 0.0 | 0.00 | 0.08 | 0.08 | 88 | 1013.2 |
| 20260902085548 | 68 | 56 | 0.0 | 0.0 | 0.00 | 0.08 | 0.08 | 88 | 1013.2 |
| 20260902085043 | 68 | 56 | 0.0 | 0.0 | 0.00 | 0.08 | 0.08 | 88 | 1013.6 |
| 20260902084539 | 68 | 56 | 0.0 | 0.0 | 0.00 | 0.08 | 0.08 | 88 | 1013.9 |
| 20260902084035 | 68 | 56 | 0.0 | 0.0 | 0.00 | 0.08 | 0.08 | 88 | 1013.9 |
| 20260902083525 | 68 | 55 | 0.0 | 0.0 | 0.00 | 0.08 | 0.08 | 88 | 1013.9 |
| 20260902083025 | 68 | 56 | 0.0 | 0.0 | 0.00 | 0.08 | 0.08 | 88 | 1013.9 |
| 20260902082520 | 68 | 56 | 0.0 | 0.0 | 0.00 | 0.08 | 0.08 | 88 | 1013.9 |
| 20260902082017 | 68 | 56 | 0.0 | 0.0 | 0.00 | 0.08 | 0.08 | 88 | 1013.9 |
| 20260902081513 | 68 | 55 | 0.0 | 0.0 | 0.00 | 0.08 | 0.08 | 88 | 1014.3 |
| 20260902081012 | 68 | 56 | 0.0 | 0.0 | 0.00 | 0.08 | 0.08 | 88 | 1013.9 |
| 20260902080508 | 68 | 56 | 0.0 | 0.0 | 0.00 | 0.08 | 0.08 | 88 | 1014.3 |
| 20260902080004 | 68 | 56 | 1.0 | 1.0 | 0.00 | 0.08 | 0.08 | 88 | 1015.0 |
| 20260902075459 | 68 | 38 | 0.0 | 0.0 | 0.00 | 0.08 | 0.08 | 88 | 1014.6 |
| 20260902074954 | 68 | 25 | 0.0 | 1.0 | 0.05 | 0.08 | 0.08 | 88 | 1015.0 |
| 20260902074449 | 68 | 182 | 2.0 | 3.0 | 0.19 | 0.08 | 0.08 | 88 | 1014.6 |
| 20260902073944 | 68 | 183 | 2.0 | 2.0 | 0.31 | 0.07 | 0.07 | 88 | 1014.6 |
| 20260902073440 | 68 | 7 | 3.0 | 4.0 | 0.24 | 0.05 | 0.05 | 88 | 1014.6 |
| 20260902072936 | 68 | 228 | 5.0 | 8.0 | 0.12 | 0.02 | 0.02 | 88 | 1015.3 |
| 20260902072432 | 68 | 243 | 9.0 | 17.0 | 0.05 | 0.01 | 0.01 | 88 | 1014.3 |
| 20260902071928 | 68 | 276 | 6.0 | 9.0 | 0.00 | 0.00 | 0.00 | 89 | 1015.0 |
| 20260902071427 | 68 | 37 | 0.0 | 0.0 | 0.00 | 0.00 | 0.00 | 89 | 1012.2 |
| 20260902070924 | 68 | 37 | 0.0 | 0.0 | 0.00 | 0.00 | 0.00 | 89 | 1011.8 |
| 20260902070419 | 68 | 37 | 0.0 | 0.0 | 0.00 | 0.00 | 0.00 | 89 | 1012.2 |
| 20260902065918 | 68 | 37 | 0.0 | 0.0 | 0.00 | 0.00 | 0.00 | 89 | 1012.2 |
| 20260902065413 | 68 | 37 | 0.0 | 0.0 | 0.00 | 0.00 | 0.00 | 89 | 1012.2 |
| 20260902064908 | 68 | 37 | 0.0 | 0.0 | 0.00 | 0.00 | 0.00 | 89 | 1011.8 |
| 20260902064404 | 68 | 37 | 0.0 | 0.0 | 0.00 | 0.00 | 0.00 | 89 | 1011.8 |
| 20260902063900 | 68 | 37 | 0.0 | 0.0 | 0.00 | 0.00 | 0.00 | 88 | 1012.2 |
| 20260902063354 | 68 | 37 | 0.0 | 0.0 | 0.00 | 0.00 | 0.00 | 88 | 1011.8 |
| 20260902062854 | 69 | 37 | 0.0 | 0.0 | 0.00 | 0.00 | 0.00 | 88 | 1011.8 |
| 20260902062354 | 69 | 37 | 0.0 | 0.0 | 0.00 | 0.00 | 0.00 | 88 | 1012.2 |
| 20260902061853 | 69 | 37 | 0.0 | 0.0 | 0.00 | 0.00 | 0.00 | 89 | 1011.8 |
| 20260902061349 | 69 | 36 | 0.0 | 0.0 | 0.00 | 0.00 | 0.00 | 89 | 1011.8 |
| 20260902060845 | 69 | 36 | 0.0 | 1.0 | 0.00 | 0.00 | 0.00 | 89 | 1011.8 |
| 20260902060340 | 69 | 36 | 0.0 | 0.0 | 0.00 | 0.00 | 0.00 | 89 | 1011.8 |
| 20260902055836 | 69 | 36 | 0.0 | 0.0 | 0.00 | 0.00 | 0.00 | 89 | 1011.5 |
| 20260902055332 | 69 | 36 | 0.0 | 0.0 | 0.00 | 0.00 | 0.00 | 89 | 1011.5 |
| 20260902054827 | 69 | 36 | 0.0 | 0.0 | 0.00 | 0.00 | 0.00 | 89 | 1011.8 |
| 20260902054323 | 69 | 36 | 0.0 | 0.0 | 0.00 | 0.00 | 0.00 | 89 | 1011.8 |
| 20260902053818 | 69 | 36 | 0.0 | 0.0 | 0.00 | 0.00 | 0.00 | 89 | 1012.2 |
| 20260902053313 | 69 | 36 | 0.0 | 0.0 | 0.00 | 0.00 | 0.00 | 88 | 1012.2 |
| 20260902052812 | 69 | 36 | 0.0 | 0.0 | 0.00 | 0.00 | 0.00 | 88 | 1012.5 |
| 20260902052308 | 69 | 36 | 0.0 | 0.0 | 0.00 | 0.00 | 0.00 | 88 | 1012.8 |
| 20260902051802 | 70 | 343 | 1.0 | 1.0 | 0.00 | 0.00 | 0.00 | 88 | 1012.8 |
| 20260902051301 | 70 | 29 | 0.0 | 0.0 | 0.00 | 0.00 | 0.00 | 88 | 1013.2 |
| 20260902050757 | 70 | 30 | 1.0 | 1.0 | 0.00 | 0.00 | 0.00 | 89 | 1012.8 |
| 20260902050251 | 70 | 32 | 0.0 | 1.0 | 0.00 | 0.00 | 0.00 | 89 | 1012.8 |
| 20260902045751 | 70 | 32 | 0.0 | 0.0 | 0.00 | 0.15 | 0.15 | 89 | 1012.5 |
| 20260902045247 | 70 | 32 | 0.0 | 0.0 | 0.00 | 0.15 | 0.15 | 89 | 1012.5 |
| 20260902044743 | 70 | 32 | 0.0 | 0.0 | 0.00 | 0.15 | 0.15 | 89 | 1012.5 |
| 20260902044238 | 70 | 32 | 0.0 | 1.0 | 0.00 | 0.15 | 0.15 | 89 | 1013.2 |
| 20260902043733 | 71 | 32 | 0.0 | 0.0 | 0.00 | 0.15 | 0.15 | 88 | 1013.2 |
| 20260902043229 | 71 | 358 | 0.0 | 0.0 | 0.00 | 0.15 | 0.15 | 88 | 1012.8 |
| 20260902042728 | 71 | 38 | 0.0 | 1.0 | 0.00 | 0.15 | 0.15 | 88 | 1013.2 |
| 20260902042223 | 71 | 187 | 3.0 | 3.0 | 0.00 | 0.15 | 0.15 | 88 | 1013.6 |
| 20260902041718 | 71 | 1 | 2.0 | 2.0 | 0.00 | 0.15 | 0.15 | 89 | 1012.8 |
| 20260902041213 | 71 | 39 | 0.0 | 0.0 | 0.00 | 0.15 | 0.15 | 89 | 1012.5 |
| 20260902040712 | 71 | 40 | 0.0 | 0.0 | 0.00 | 0.15 | 0.15 | 89 | 1012.2 |
| 20260902040208 | 71 | 40 | 0.0 | 0.0 | 0.07 | 0.15 | 0.15 | 89 | 1012.5 |
| 20260902035706 | 71 | 40 | 0.0 | 0.0 | 0.07 | 0.15 | 0.15 | 89 | 1012.8 |
| 20260902035202 | 71 | 40 | 0.0 | 0.0 | 0.00 | 0.14 | 0.14 | 89 | 1012.5 |
| 20260902034701 | 71 | 40 | 0.0 | 0.0 | 0.00 | 0.14 | 0.14 | 89 | 1012.8 |
| 20260902034200 | 71 | 40 | 0.0 | 0.0 | 0.00 | 0.14 | 0.14 | 89 | 1012.5 |
| 20260902033659 | 71 | 40 | 0.0 | 0.0 | 0.00 | 0.14 | 0.14 | 88 | 1012.5 |
| 20260902033154 | 71 | 40 | 0.0 | 0.0 | 0.00 | 0.14 | 0.14 | 88 | 1012.8 |
| 20260902032653 | 71 | 40 | 0.0 | 0.0 | 0.00 | 0.14 | 0.14 | 88 | 1012.8 |
| 20260902032148 | 71 | 40 | 0.0 | 0.0 | 0.00 | 0.14 | 0.14 | 88 | 1013.2 |
| 20260902031642 | 71 | 40 | 0.0 | 0.0 | 0.00 | 0.14 | 0.14 | 88 | 1012.5 |
| 20260902031138 | 71 | 40 | 0.0 | 0.0 | 0.00 | 0.14 | 0.14 | 88 | 1012.8 |
| 20260902030634 | 71 | 40 | 0.0 | 0.0 | 0.00 | 0.14 | 0.14 | 88 | 1012.5 |
| 20260902030133 | 71 | 40 | 0.0 | 0.0 | 0.00 | 0.14 | 0.14 | 88 | 1012.5 |
| 20260902025632 | 72 | 40 | 0.0 | 0.0 | 0.00 | 0.14 | 0.14 | 88 | 1012.8 |
| 20260902025128 | 72 | 40 | 0.0 | 0.0 | 0.00 | 0.14 | 0.14 | 88 | 1012.8 |
| 20260902024623 | 72 | 40 | 0.0 | 0.0 | 0.00 | 0.14 | 0.14 | 88 | 1012.8 |
| 20260902024118 | 72 | 40 | 0.0 | 0.0 | 0.00 | 0.14 | 0.14 | 88 | 1013.2 |
| 20260902023614 | 72 | 40 | 0.0 | 0.0 | 0.00 | 0.14 | 0.14 | 88 | 1012.8 |
| 20260902023108 | 72 | 40 | 0.0 | 0.0 | 0.00 | 0.14 | 0.14 | 88 | 1012.8 |
| 20260902022608 | 72 | 40 | 0.0 | 0.0 | 0.00 | 0.14 | 0.14 | 88 | 1013.2 |
| 20260902022104 | 72 | 40 | 0.0 | 0.0 | 0.00 | 0.14 | 0.14 | 88 | 1013.2 |
| 20260902021559 | 72 | 40 | 0.0 | 0.0 | 0.00 | 0.14 | 0.14 | 88 | 1013.2 |
| 20260902021054 | 72 | 40 | 0.0 | 0.0 | 0.00 | 0.14 | 0.14 | 88 | 1013.2 |
| 20260902020550 | 72 | 40 | 0.0 | 0.0 | 0.00 | 0.14 | 0.14 | 88 | 1012.8 |
| 20260902020046 | 73 | 40 | 0.0 | 0.0 | 0.00 | 0.14 | 0.14 | 88 | 1012.8 |
| 20260902015541 | 73 | 40 | 0.0 | 0.0 | 0.00 | 0.14 | 0.14 | 88 | 1013.2 |
| 20260902015037 | 73 | 40 | 0.0 | 0.0 | 0.00 | 0.14 | 0.14 | 88 | 1012.8 |
| 20260902014533 | 73 | 40 | 0.0 | 0.0 | 0.00 | 0.14 | 0.14 | 88 | 1012.8 |
| 20260902014028 | 73 | 40 | 0.0 | 0.0 | 0.00 | 0.14 | 0.14 | 88 | 1012.8 |
| 20260902013527 | 73 | 40 | 0.0 | 0.0 | 0.00 | 0.14 | 0.14 | 88 | 1013.2 |
| 20260902013023 | 73 | 40 | 0.0 | 0.0 | 0.00 | 0.14 | 0.14 | 88 | 1012.8 |
| 20260902012518 | 73 | 40 | 1.0 | 1.0 | 0.00 | 0.14 | 0.14 | 88 | 1012.5 |
| 20260902012014 | 73 | 40 | 0.0 | 0.0 | 0.00 | 0.14 | 0.14 | 88 | 1012.8 |
| 20260902011509 | 73 | 40 | 0.0 | 0.0 | 0.00 | 0.14 | 0.14 | 88 | 1012.8 |
| 20260902011009 | 73 | 40 | 0.0 | 0.0 | 0.00 | 0.14 | 0.14 | 88 | 1012.5 |
| 20260902010509 | 73 | 40 | 0.0 | 0.0 | 0.00 | 0.14 | 0.14 | 88 | 1012.5 |
| 20260902010004 | 73 | 40 | 0.0 | 0.0 | 0.00 | 0.14 | 0.14 | 88 | 1012.5 |
| 20260902005502 | 73 | 40 | 0.0 | 0.0 | 0.00 | 0.14 | 0.14 | 88 | 1012.2 |
| 20260902004959 | 73 | 40 | 0.0 | 0.0 | 0.00 | 0.14 | 0.14 | 87 | 1012.5 |
| 20260902004458 | 73 | 37 | 0.0 | 0.0 | 0.00 | 0.14 | 0.14 | 87 | 1012.5 |
| 20260902003953 | 73 | 38 | 0.0 | 0.0 | 0.00 | 0.14 | 0.14 | 87 | 1012.2 |
| 20260902003448 | 73 | 38 | 0.0 | 0.0 | 0.00 | 0.14 | 0.14 | 87 | 1012.5 |
| 20260902002943 | 73 | 38 | 0.0 | 0.0 | 0.00 | 0.14 | 0.14 | 87 | 1012.2 |
| 20260902002439 | 73 | 9 | 1.0 | 2.0 | 0.24 | 0.14 | 0.14 | 87 | 1012.2 |
| 20260902001938 | 73 | 56 | 0.0 | 1.0 | 0.28 | 0.14 | 0.14 | 86 | 1012.2 |
| 20260902001433 | 73 | 39 | 0.0 | 0.0 | 0.12 | 0.10 | 0.10 | 87 | 1012.2 |
| 20260902000928 | 73 | 39 | 0.0 | 0.0 | 0.07 | 0.09 | 0.09 | 87 | 1012.2 |
| 20260902000423 | 74 | 39 | 1.0 | 1.0 | 0.00 | 0.08 | 0.08 | 86 | 1012.2 |
| 20260901235918 | 74 | 39 | 0.0 | 0.0 | 0.00 | 0.08 | 0.08 | 85 | 1012.5 |
| 20260901235413 | 74 | 39 | 0.0 | 0.0 | 0.00 | 0.08 | 0.08 | 84 | 1012.2 |
| 20260901234908 | 75 | 39 | 0.0 | 0.0 | 0.00 | 0.08 | 0.08 | 84 | 1012.2 |
| 20260901234402 | 75 | 39 | 0.0 | 0.0 | 0.00 | 0.08 | 0.08 | 83 | 1012.2 |
| 20260901233857 | 75 | 37 | 0.0 | 0.0 | 0.00 | 0.08 | 0.08 | 82 | 1012.2 |
| 20260901233352 | 76 | 317 | 1.0 | 1.0 | 0.12 | 0.08 | 0.08 | 81 | 1012.5 |
| 20260901232849 | 77 | 342 | 2.0 | 2.0 | 0.24 | 0.08 | 0.08 | 81 | 1012.5 |
| 20260901232348 | 77 | 64 | 1.0 | 2.0 | 0.00 | 0.04 | 0.04 | 80 | 1011.1 |
| 20260901231844 | 78 | 69 | 1.0 | 1.0 | 0.00 | 0.04 | 0.04 | 79 | 1011.8 |
| 20260901231341 | 79 | 38 | 0.0 | 1.0 | 0.12 | 0.04 | 0.04 | 78 | 1011.8 |
| 20260901230837 | 80 | 38 | 2.0 | 2.0 | 0.24 | 0.04 | 0.04 | 76 | 1012.2 |
| 20260901230336 | 80 | 54 | 0.0 | 1.0 | 0.05 | 0.01 | 0.01 | 73 | 1011.8 |
| 20260901225832 | 81 | 329 | 2.0 | 2.0 | 0.00 | 0.00 | 0.00 | 71 | 1013.6 |
| 20260901225331 | 81 | 331 | 1.0 | 1.0 | 0.00 | 0.00 | 0.00 | 67 | 1013.2 |
| 20260901224826 | 82 | 30 | 0.0 | 0.0 | 0.00 | 0.00 | 0.00 | 65 | 1012.8 |